SKW4966 KBOI-KPHX

Flight info

Callsign SKW4966
Flight time 1h 50m
Altitude 39000
Route ROARR LYONS CRITO WINEN Q35 CORKR TENTS BRUSR1
Aircraft CRJ7/M-SDFGIRWY/S

Departure

Time 2026-05-05 01:33
Airport Boise Air Terminal/Gowen Field (KBOI)

Arrival

Time 2026-05-05 03:23
Airport Phoenix Sky Harbor International Airport (KPHX)
Time Latitude Longitude Altitude Speed Heading
2026-05-05 01:15 43.56678 -116.21925 2854 ft 0 kts 25°
2026-05-05 01:27 43.56671 -116.21929 2852 ft 2 kts 25°
2026-05-05 01:27 43.56657 -116.21938 2854 ft 2 kts 24°
2026-05-05 01:27 43.56642 -116.21948 2855 ft 2 kts 24°
2026-05-05 01:28 43.56629 -116.21961 2853 ft 2 kts 69°
2026-05-05 01:28 43.56629 -116.21979 2852 ft 1 kts 110°
2026-05-05 01:28 43.56630 -116.21981 2852 ft 0 kts 111°
2026-05-05 01:29 43.56628 -116.21975 2852 ft 1 kts 111°
2026-05-05 01:30 43.56617 -116.21943 2854 ft 6 kts 115°
2026-05-05 01:30 43.56592 -116.21869 2853 ft 11 kts 116°
2026-05-05 01:30 43.56555 -116.21766 2851 ft 11 kts 125°
2026-05-05 01:30 43.56490 -116.21723 2854 ft 12 kts 156°
2026-05-05 01:31 43.56432 -116.21610 2856 ft 18 kts 115°
2026-05-05 01:31 43.56374 -116.21437 2863 ft 22 kts 115°
2026-05-05 01:31 43.56303 -116.21233 2866 ft 24 kts 115°
2026-05-05 01:31 43.56235 -116.21031 2870 ft 22 kts 115°
2026-05-05 01:32 43.56175 -116.20872 2869 ft 14 kts 141°
2026-05-05 01:32 43.56097 -116.20893 2868 ft 13 kts 207°
2026-05-05 01:32 43.56006 -116.20953 2867 ft 16 kts 205°
2026-05-05 01:32 43.55918 -116.21018 2870 ft 14 kts 233°
2026-05-05 01:33 43.55960 -116.21213 2867 ft 46 kts 296°
2026-05-05 01:33 43.56207 -116.21932 2855 ft 117 kts 295°
2026-05-05 01:33 43.56635 -116.23168 2991 ft 159 kts 296°
2026-05-05 01:33 43.57067 -116.24507 3946 ft 150 kts 296°
2026-05-05 01:34 43.57482 -116.25881 4547 ft 167 kts 295°
2026-05-05 01:34 43.57946 -116.27450 5026 ft 189 kts 296°
2026-05-05 01:34 43.58454 -116.29286 5514 ft 219 kts 292°
2026-05-05 01:34 43.58450 -116.31512 6137 ft 254 kts 253°
2026-05-05 01:35 43.57332 -116.33535 6872 ft 283 kts 219°
2026-05-05 01:35 43.55460 -116.34576 7667 ft 301 kts 186°
2026-05-05 01:35 43.53371 -116.34311 8695 ft 305 kts 167°
2026-05-05 01:35 43.51285 -116.33636 9558 ft 309 kts 165°
2026-05-05 01:36 43.49217 -116.32905 10295 ft 312 kts 164°
2026-05-05 01:36 43.47076 -116.32103 10736 ft 327 kts 162°
2026-05-05 01:36 43.45038 -116.30673 11179 ft 334 kts 135°
2026-05-05 01:36 43.43521 -116.28259 11921 ft 331 kts 122°
2026-05-05 01:37 43.42509 -116.25418 12683 ft 326 kts 103°
2026-05-05 01:37 43.41943 -116.22398 13431 ft 328 kts 99°
2026-05-05 01:37 43.41475 -116.19359 14075 ft 330 kts 99°
2026-05-05 01:37 43.41030 -116.16247 14702 ft 334 kts 98°
2026-05-05 01:38 43.40602 -116.13095 15328 ft 336 kts 97°
2026-05-05 01:38 43.40195 -116.09899 15896 ft 340 kts 96°
2026-05-05 01:38 43.39787 -116.06678 16450 ft 345 kts 98°
2026-05-05 01:38 43.39336 -116.03420 16992 ft 349 kts 100°
2026-05-05 01:39 43.38846 -116.00133 17529 ft 353 kts 100°
2026-05-05 01:39 43.38344 -115.96811 18058 ft 357 kts 100°
2026-05-05 01:39 43.37842 -115.93460 18551 ft 359 kts 101°
2026-05-05 01:39 43.37337 -115.90084 19042 ft 362 kts 100°
2026-05-05 01:40 43.36828 -115.86693 19535 ft 364 kts 101°
2026-05-05 01:40 43.36315 -115.83275 20002 ft 366 kts 99°
2026-05-05 01:40 43.35790 -115.79846 20500 ft 367 kts 101°
2026-05-05 01:40 43.35271 -115.76410 21011 ft 368 kts 100°
2026-05-05 01:41 43.34749 -115.72949 21419 ft 371 kts 99°
2026-05-05 01:41 43.34218 -115.69469 21862 ft 373 kts 100°
2026-05-05 01:41 43.33690 -115.65966 22312 ft 375 kts 100°
2026-05-05 01:41 43.33149 -115.62451 22742 ft 378 kts 99°
2026-05-05 01:42 43.32599 -115.58922 23207 ft 379 kts 101°
2026-05-05 01:42 43.32050 -115.55359 23514 ft 382 kts 100°
2026-05-05 01:42 43.31507 -115.51818 23794 ft 385 kts 100°
2026-05-05 01:42 43.30948 -115.48170 24165 ft 386 kts 100°
2026-05-05 01:43 43.30402 -115.44601 24487 ft 388 kts 99°
2026-05-05 01:43 43.29852 -115.40971 24812 ft 390 kts 99°
2026-05-05 01:43 43.29106 -115.37385 25094 ft 395 kts 112°
2026-05-05 01:43 43.27547 -115.34252 25389 ft 403 kts 130°
2026-05-05 01:44 43.25476 -115.31635 25699 ft 406 kts 137°
2026-05-05 01:44 43.23313 -115.29130 25979 ft 408 kts 137°
2026-05-05 01:44 43.21177 -115.26564 26270 ft 409 kts 135°
2026-05-05 01:44 43.19094 -115.23890 26554 ft 411 kts 134°
2026-05-05 01:45 43.17030 -115.21165 26819 ft 413 kts 134°
2026-05-05 01:45 43.14948 -115.18451 27072 ft 415 kts 134°
2026-05-05 01:45 43.12845 -115.15730 27325 ft 417 kts 134°
2026-05-05 01:45 43.10739 -115.13002 27630 ft 417 kts 134°
2026-05-05 01:46 43.08627 -115.10266 27876 ft 419 kts 133°
2026-05-05 01:46 43.06526 -115.07512 28154 ft 419 kts 133°
2026-05-05 01:46 43.04404 -115.04752 28323 ft 423 kts 134°
2026-05-05 01:46 43.02256 -115.01984 28512 ft 425 kts 134°
2026-05-05 01:47 43.00107 -114.99203 28751 ft 426 kts 134°
2026-05-05 01:47 42.97947 -114.96409 28975 ft 428 kts 134°
2026-05-05 01:47 42.95782 -114.93619 29245 ft 428 kts 134°
2026-05-05 01:47 42.93607 -114.90828 29469 ft 429 kts 134°
2026-05-05 01:48 42.91429 -114.88033 29621 ft 431 kts 134°
2026-05-05 01:48 42.89242 -114.85233 29756 ft 432 kts 134°
2026-05-05 01:48 42.84853 -114.79606 29915 ft 433 kts 134°
2026-05-05 01:49 42.82653 -114.76790 30017 ft 434 kts 134°
2026-05-05 01:49 42.80399 -114.74052 30146 ft 436 kts 141°
2026-05-05 01:49 42.77696 -114.72134 30220 ft 443 kts 159°
2026-05-05 01:49 42.74739 -114.70938 30416 ft 445 kts 163°
2026-05-05 01:50 42.71707 -114.70029 30661 ft 448 kts 169°
2026-05-05 01:50 42.68597 -114.69670 30882 ft 451 kts 177°
2026-05-05 01:50 42.65451 -114.69648 31102 ft 453 kts 179°
2026-05-05 01:50 42.62291 -114.69681 31365 ft 453 kts 178°
2026-05-05 01:51 42.59129 -114.69610 31602 ft 453 kts 176°
2026-05-05 01:51 42.55993 -114.69434 31998 ft 450 kts 175°
2026-05-05 01:51 42.52867 -114.69270 32284 ft 449 kts 176°
2026-05-05 01:51 42.49744 -114.69131 32559 ft 449 kts 176°
2026-05-05 01:52 42.46625 -114.68988 32815 ft 448 kts 176°
2026-05-05 01:52 42.43550 -114.68847 33085 ft 447 kts 176°
2026-05-05 01:52 42.40401 -114.68703 33342 ft 447 kts 176°
2026-05-05 01:52 42.37340 -114.68562 33582 ft 446 kts 176°
2026-05-05 01:53 42.34242 -114.68420 33789 ft 446 kts 176°
2026-05-05 01:53 42.31143 -114.68276 33985 ft 445 kts 176°
2026-05-05 01:53 42.28047 -114.68136 34177 ft 444 kts 176°
2026-05-05 01:53 42.24958 -114.67993 34397 ft 443 kts 176°
2026-05-05 01:54 42.21888 -114.67852 34647 ft 441 kts 177°
2026-05-05 01:54 42.18829 -114.67717 34832 ft 440 kts 177°
2026-05-05 01:54 42.15770 -114.67577 35009 ft 439 kts 177°
2026-05-05 01:54 42.12721 -114.67440 35194 ft 439 kts 177°
2026-05-05 01:55 42.09673 -114.67301 35374 ft 438 kts 178°
2026-05-05 01:55 42.06627 -114.67162 35539 ft 438 kts 178°
2026-05-05 01:55 42.03578 -114.67024 35694 ft 438 kts 178°
2026-05-05 01:55 42.00539 -114.66886 35863 ft 437 kts 178°
2026-05-05 01:56 41.97496 -114.66747 36030 ft 437 kts 178°
2026-05-05 01:56 41.94458 -114.66608 36165 ft 437 kts 178°
2026-05-05 01:56 41.91416 -114.66472 36326 ft 436 kts 178°
2026-05-05 01:56 41.88379 -114.66334 36454 ft 436 kts 178°
2026-05-05 01:57 41.85353 -114.66187 36619 ft 436 kts 179°
2026-05-05 01:57 41.82330 -114.66026 36824 ft 434 kts 179°
2026-05-05 01:57 41.79312 -114.65858 36953 ft 434 kts 178°
2026-05-05 01:57 41.76305 -114.65697 37133 ft 432 kts 179°
2026-05-05 01:58 41.73297 -114.65569 37272 ft 431 kts 180°
2026-05-05 01:58 41.70336 -114.65453 37405 ft 431 kts 179°
2026-05-05 01:58 41.67348 -114.65334 37594 ft 429 kts 180°
2026-05-05 01:58 41.64369 -114.65199 37792 ft 427 kts 180°
2026-05-05 01:59 41.61364 -114.65054 37929 ft 426 kts 180°
2026-05-05 01:59 41.58404 -114.64920 38071 ft 426 kts 180°
2026-05-05 01:59 41.55481 -114.64784 38195 ft 425 kts 180°
2026-05-05 01:59 41.52487 -114.64632 38282 ft 425 kts 181°
2026-05-05 02:00 41.49536 -114.64509 38408 ft 424 kts 181°
2026-05-05 02:00 41.46600 -114.64391 38575 ft 421 kts 181°
2026-05-05 02:00 41.40783 -114.64143 38695 ft 422 kts 181°
2026-05-05 02:01 41.34898 -114.63874 38722 ft 425 kts 181°
2026-05-05 02:01 41.28969 -114.63605 38729 ft 428 kts 182°
2026-05-05 02:02 41.22988 -114.63338 38741 ft 432 kts 182°
2026-05-05 02:02 41.16956 -114.63076 38741 ft 436 kts 182°
2026-05-05 02:03 41.11865 -114.62857 38738 ft 439 kts 182°
2026-05-05 02:03 41.05788 -114.62561 38750 ft 439 kts 182°
2026-05-05 02:04 40.99709 -114.62300 38749 ft 435 kts 182°
2026-05-05 02:04 40.93671 -114.62041 38755 ft 433 kts 182°
2026-05-05 02:05 40.87671 -114.61770 38758 ft 430 kts 183°
2026-05-05 02:05 40.81707 -114.61506 38761 ft 427 kts 183°
2026-05-05 02:06 40.75780 -114.61248 38768 ft 425 kts 183°
2026-05-05 02:06 40.69885 -114.60991 38744 ft 422 kts 183°
2026-05-05 02:07 40.64031 -114.60723 38762 ft 419 kts 183°
2026-05-05 02:07 40.58219 -114.60482 38764 ft 416 kts 184°
2026-05-05 02:08 40.52443 -114.60232 38760 ft 414 kts 183°
2026-05-05 02:08 40.46704 -114.59971 38756 ft 411 kts 184°
2026-05-05 02:09 40.41010 -114.59731 38758 ft 408 kts 184°
2026-05-05 02:09 40.35351 -114.59484 38765 ft 405 kts 184°
2026-05-05 02:10 40.29729 -114.59238 38770 ft 403 kts 184°
2026-05-05 02:10 40.24177 -114.58999 38774 ft 401 kts 184°
2026-05-05 02:11 40.18615 -114.58761 38772 ft 399 kts 184°
2026-05-05 02:11 40.13082 -114.58519 38779 ft 396 kts 184°
2026-05-05 02:12 40.04851 -114.58168 38784 ft 393 kts 184°
2026-05-05 02:13 39.99406 -114.57935 38784 ft 390 kts 184°
2026-05-05 02:13 39.94003 -114.57703 38784 ft 387 kts 184°
2026-05-05 02:14 39.88647 -114.57469 38790 ft 384 kts 184°
2026-05-05 02:14 39.83327 -114.57246 38792 ft 381 kts 184°
2026-05-05 02:15 39.78036 -114.57020 38794 ft 381 kts 184°
2026-05-05 02:15 39.72700 -114.56796 38800 ft 386 kts 184°
2026-05-05 02:16 39.67303 -114.56567 38804 ft 390 kts 184°
2026-05-05 02:16 39.61842 -114.56309 38839 ft 396 kts 184°
2026-05-05 02:17 39.56303 -114.56097 38819 ft 401 kts 184°
2026-05-05 02:17 39.50690 -114.55898 38798 ft 406 kts 183°
2026-05-05 02:18 39.45016 -114.55656 38787 ft 410 kts 184°
2026-05-05 02:18 39.39290 -114.55421 38783 ft 414 kts 184°
2026-05-05 02:19 39.33510 -114.54710 38845 ft 427 kts 169°
2026-05-05 02:19 39.27894 -114.51917 38834 ft 435 kts 164°
2026-05-05 02:20 39.22335 -114.48833 38822 ft 441 kts 161°
2026-05-05 02:20 39.16897 -114.44940 38793 ft 452 kts 154°
2026-05-05 02:21 39.11582 -114.40540 38769 ft 455 kts 154°
2026-05-05 02:21 39.06164 -114.36296 38777 ft 457 kts 156°
2026-05-05 02:22 39.00694 -114.32062 38777 ft 460 kts 155°
2026-05-05 02:22 38.95187 -114.27812 38820 ft 464 kts 154°
2026-05-05 02:23 38.89670 -114.23511 38766 ft 464 kts 157°
2026-05-05 02:23 38.84097 -114.19285 38776 ft 467 kts 156°
2026-05-05 02:24 38.78565 -114.14999 38759 ft 468 kts 156°
2026-05-05 02:24 38.72992 -114.10683 38748 ft 468 kts 156°
2026-05-05 02:25 38.67404 -114.06385 38748 ft 468 kts 157°
2026-05-05 02:25 38.61816 -114.02087 38769 ft 469 kts 157°
2026-05-05 02:26 38.56229 -113.97804 38770 ft 467 kts 157°
2026-05-05 02:26 38.50682 -113.93529 38759 ft 464 kts 157°
2026-05-05 02:27 38.45181 -113.89238 38756 ft 462 kts 157°
2026-05-05 02:27 38.39688 -113.85036 38755 ft 459 kts 158°
2026-05-05 02:28 38.34225 -113.80869 38765 ft 456 kts 158°
2026-05-05 02:28 38.28782 -113.76729 38766 ft 455 kts 158°
2026-05-05 02:29 38.23353 -113.72606 38763 ft 453 kts 159°
2026-05-05 02:29 38.17950 -113.68512 38771 ft 452 kts 159°
2026-05-05 02:30 38.12556 -113.64431 38780 ft 451 kts 159°
2026-05-05 02:30 38.07169 -113.60360 38784 ft 451 kts 159°
2026-05-05 02:31 38.01820 -113.56337 38769 ft 450 kts 160°
2026-05-05 02:31 37.96450 -113.52275 38778 ft 448 kts 160°
2026-05-05 02:32 37.91038 -113.48443 38773 ft 442 kts 164°
2026-05-05 02:32 37.85504 -113.45170 38782 ft 438 kts 166°
2026-05-05 02:33 37.79983 -113.41885 38809 ft 439 kts 166°
2026-05-05 02:33 37.74501 -113.38543 38848 ft 437 kts 166°
2026-05-05 02:34 37.69028 -113.35235 38864 ft 436 kts 166°
2026-05-05 02:34 37.63573 -113.31924 38861 ft 435 kts 166°
2026-05-05 02:35 37.58144 -113.28569 38852 ft 434 kts 166°
2026-05-05 02:35 37.52758 -113.25241 38849 ft 426 kts 168°
2026-05-05 02:36 37.47403 -113.22178 38860 ft 428 kts 167°
2026-05-05 02:36 37.42005 -113.18892 38828 ft 427 kts 168°
2026-05-05 02:37 37.36694 -113.15642 38829 ft 428 kts 166°
2026-05-05 02:37 37.31307 -113.12350 38822 ft 427 kts 167°
2026-05-05 02:38 37.25951 -113.09112 38864 ft 427 kts 168°
2026-05-05 02:38 37.20619 -113.05983 38882 ft 426 kts 169°
2026-05-05 02:39 37.15274 -113.02795 38898 ft 425 kts 168°
2026-05-05 02:39 37.09948 -112.99582 38886 ft 424 kts 168°
2026-05-05 02:40 37.04651 -112.96492 38924 ft 418 kts 169°
2026-05-05 02:40 36.99392 -112.93395 38951 ft 417 kts 169°
2026-05-05 02:41 36.94159 -112.90248 38960 ft 418 kts 169°
2026-05-05 02:41 36.88922 -112.87065 38948 ft 418 kts 169°
2026-05-05 02:42 36.83674 -112.83945 38911 ft 418 kts 169°
2026-05-05 02:42 36.78433 -112.80838 38876 ft 416 kts 169°
2026-05-05 02:43 36.73202 -112.77753 38825 ft 415 kts 170°
2026-05-05 02:43 36.67975 -112.74679 38818 ft 415 kts 170°
2026-05-05 02:44 36.62788 -112.71631 38809 ft 415 kts 170°
2026-05-05 02:44 36.57572 -112.68566 38828 ft 415 kts 170°
2026-05-05 02:45 36.52347 -112.65503 38890 ft 415 kts 170°
2026-05-05 02:45 36.47100 -112.62454 38823 ft 418 kts 169°
2026-05-05 02:46 36.41862 -112.59399 38851 ft 415 kts 171°
2026-05-05 02:46 36.36606 -112.56413 38862 ft 417 kts 170°
2026-05-05 02:47 36.31343 -112.53379 38934 ft 422 kts 169°
2026-05-05 02:47 36.26066 -112.50170 38857 ft 418 kts 171°
2026-05-05 02:48 36.20780 -112.47094 38840 ft 421 kts 168°
2026-05-05 02:48 36.15544 -112.44029 38880 ft 411 kts 172°
2026-05-05 02:48 36.12894 -112.42867 38908 ft 393 kts 181°
2026-05-05 02:49 36.10238 -112.42235 38930 ft 388 kts 184°
2026-05-05 02:49 36.04924 -112.41171 38955 ft 386 kts 185°
2026-05-05 02:50 36.00487 -112.40577 38957 ft 377 kts 191°
2026-05-05 02:50 35.95382 -112.40917 38967 ft 367 kts 197°
2026-05-05 02:51 35.90293 -112.41528 38964 ft 368 kts 196°
2026-05-05 02:51 35.85164 -112.42010 38936 ft 370 kts 196°
2026-05-05 02:52 35.80023 -112.42460 38923 ft 371 kts 195°
2026-05-05 02:52 35.77455 -112.42679 38496 ft 366 kts 195°
2026-05-05 02:52 35.74946 -112.42883 38050 ft 358 kts 196°
2026-05-05 02:52 35.72473 -112.43097 37607 ft 354 kts 196°
2026-05-05 02:53 35.70026 -112.43316 37185 ft 353 kts 196°
2026-05-05 02:53 35.67574 -112.43533 36766 ft 353 kts 196°
2026-05-05 02:53 35.65114 -112.43750 36357 ft 357 kts 195°
2026-05-05 02:53 35.62615 -112.43972 35959 ft 363 kts 195°
2026-05-05 02:54 35.60087 -112.44195 35579 ft 366 kts 195°
2026-05-05 02:54 35.57536 -112.44419 35212 ft 369 kts 195°
2026-05-05 02:54 35.54969 -112.44643 34825 ft 371 kts 194°
2026-05-05 02:54 35.52385 -112.44861 34465 ft 376 kts 192°
2026-05-05 02:55 35.49729 -112.44749 34126 ft 387 kts 187°
2026-05-05 02:55 35.47032 -112.44432 33732 ft 392 kts 185°
2026-05-05 02:55 35.44314 -112.44045 33281 ft 393 kts 185°
2026-05-05 02:55 35.41591 -112.43636 32839 ft 396 kts 184°
2026-05-05 02:56 35.38857 -112.43143 32405 ft 398 kts 183°
2026-05-05 02:56 35.36113 -112.42593 31968 ft 400 kts 182°
2026-05-05 02:56 35.33401 -112.42061 31536 ft 401 kts 183°
2026-05-05 02:56 35.30642 -112.41524 31104 ft 403 kts 182°
2026-05-05 02:57 35.27821 -112.40981 30672 ft 418 kts 182°
2026-05-05 02:57 35.24933 -112.40417 30207 ft 420 kts 182°
2026-05-05 02:57 35.22050 -112.39852 29617 ft 419 kts 182°
2026-05-05 02:57 35.19165 -112.39286 29008 ft 420 kts 181°
2026-05-05 02:58 35.16296 -112.38668 28556 ft 416 kts 181°
2026-05-05 02:58 35.13448 -112.38058 28082 ft 415 kts 180°
2026-05-05 02:58 35.10606 -112.37445 27703 ft 415 kts 180°
2026-05-05 02:58 35.07767 -112.36826 27326 ft 414 kts 180°
2026-05-05 02:59 35.04933 -112.36212 26965 ft 414 kts 180°
2026-05-05 02:59 35.02096 -112.35602 26600 ft 414 kts 180°
2026-05-05 02:59 34.99260 -112.34988 26243 ft 414 kts 180°
2026-05-05 02:59 34.96418 -112.34376 25897 ft 415 kts 179°
2026-05-05 03:00 34.93571 -112.33753 25569 ft 416 kts 179°
2026-05-05 03:00 34.90718 -112.33119 25231 ft 415 kts 179°
2026-05-05 03:00 34.87898 -112.32508 24904 ft 408 kts 179°
2026-05-05 03:00 34.85122 -112.31897 24552 ft 401 kts 179°
2026-05-05 03:01 34.82404 -112.31287 24229 ft 394 kts 179°
2026-05-05 03:01 34.79715 -112.30678 23884 ft 392 kts 178°
2026-05-05 03:01 34.77041 -112.30069 23573 ft 391 kts 178°
2026-05-05 03:01 34.74358 -112.29469 23190 ft 393 kts 178°
2026-05-05 03:02 34.71696 -112.28886 22811 ft 395 kts 178°
2026-05-05 03:02 34.68985 -112.28296 22430 ft 397 kts 178°
2026-05-05 03:02 34.66265 -112.27704 22052 ft 396 kts 177°
2026-05-05 03:02 34.63558 -112.27109 21646 ft 395 kts 177°
2026-05-05 03:03 34.60887 -112.26520 21273 ft 383 kts 177°
2026-05-05 03:03 34.58309 -112.25957 20893 ft 371 kts 177°
2026-05-05 03:03 34.55805 -112.25409 20509 ft 361 kts 177°
2026-05-05 03:03 34.53367 -112.24876 20126 ft 352 kts 176°
2026-05-05 03:04 34.50966 -112.24355 19739 ft 349 kts 176°
2026-05-05 03:04 34.48582 -112.23841 19413 ft 348 kts 176°
2026-05-05 03:04 34.46191 -112.23312 19083 ft 351 kts 175°
2026-05-05 03:04 34.43779 -112.22764 18689 ft 353 kts 175°
2026-05-05 03:05 34.41355 -112.22232 18376 ft 356 kts 174°
2026-05-05 03:05 34.38920 -112.21624 18064 ft 359 kts 173°
2026-05-05 03:05 34.36479 -112.20973 17718 ft 359 kts 173°
2026-05-05 03:05 34.34038 -112.20333 17400 ft 358 kts 173°
2026-05-05 03:06 34.31620 -112.19706 17059 ft 353 kts 173°
2026-05-05 03:06 34.29237 -112.19082 16731 ft 348 kts 173°
2026-05-05 03:06 34.26882 -112.18478 16415 ft 344 kts 173°
2026-05-05 03:06 34.24558 -112.17874 16080 ft 340 kts 173°
2026-05-05 03:07 34.22258 -112.17279 15755 ft 336 kts 173°
2026-05-05 03:07 34.19993 -112.16665 15416 ft 332 kts 173°
2026-05-05 03:07 34.17749 -112.16077 15111 ft 328 kts 173°
2026-05-05 03:07 34.15530 -112.15496 14796 ft 323 kts 173°
2026-05-05 03:08 34.13350 -112.14940 14484 ft 317 kts 174°
2026-05-05 03:08 34.11219 -112.14386 14200 ft 309 kts 173°
2026-05-05 03:08 34.09154 -112.13840 13905 ft 299 kts 173°
2026-05-05 03:08 34.07161 -112.13208 13591 ft 295 kts 169°
2026-05-05 03:09 34.05213 -112.12430 13277 ft 294 kts 167°
2026-05-05 03:09 34.03291 -112.11612 13005 ft 292 kts 167°
2026-05-05 03:09 34.01376 -112.10811 12725 ft 290 kts 167°
2026-05-05 03:09 33.99490 -112.10039 12454 ft 290 kts 167°
2026-05-05 03:10 33.97582 -112.09264 12177 ft 289 kts 167°
2026-05-05 03:10 33.95677 -112.08493 11893 ft 288 kts 167°
2026-05-05 03:10 33.93784 -112.07701 11621 ft 287 kts 166°
2026-05-05 03:10 33.91895 -112.06922 11362 ft 286 kts 167°
2026-05-05 03:11 33.90017 -112.06148 11106 ft 285 kts 166°
2026-05-05 03:11 33.88145 -112.05387 10844 ft 283 kts 166°
2026-05-05 03:11 33.86283 -112.04634 10588 ft 282 kts 166°
2026-05-05 03:11 33.84431 -112.03879 10326 ft 281 kts 165°
2026-05-05 03:12 33.82592 -112.03095 10077 ft 279 kts 166°
2026-05-05 03:12 33.80745 -112.02369 9817 ft 279 kts 167°
2026-05-05 03:12 33.78895 -112.01657 9537 ft 279 kts 167°
2026-05-05 03:12 33.77051 -112.00926 9255 ft 278 kts 166°
2026-05-05 03:13 33.75214 -112.00200 8984 ft 278 kts 166°
2026-05-05 03:13 33.73395 -111.99464 8784 ft 272 kts 166°
2026-05-05 03:13 33.71648 -111.98751 8702 ft 261 kts 166°
2026-05-05 03:13 33.69956 -111.98050 8544 ft 254 kts 165°
2026-05-05 03:14 33.68301 -111.97374 8400 ft 251 kts 166°
2026-05-05 03:14 33.66644 -111.96708 8245 ft 252 kts 166°
2026-05-05 03:14 33.64975 -111.96044 8099 ft 253 kts 165°
2026-05-05 03:14 33.63329 -111.95374 7957 ft 252 kts 165°
2026-05-05 03:15 33.61669 -111.94703 7809 ft 252 kts 165°
2026-05-05 03:15 33.60014 -111.94033 7665 ft 248 kts 165°
2026-05-05 03:15 33.58399 -111.93379 7520 ft 242 kts 165°
2026-05-05 03:15 33.56825 -111.92745 7370 ft 236 kts 165°
2026-05-05 03:16 33.55289 -111.92122 7221 ft 230 kts 165°
2026-05-05 03:16 33.53921 -111.91187 7082 ft 233 kts 135°
2026-05-05 03:16 33.53148 -111.89443 6876 ft 243 kts 115°
2026-05-05 03:16 33.52668 -111.87481 6636 ft 248 kts 102°
2026-05-05 03:17 33.52579 -111.85401 6399 ft 252 kts 92°
2026-05-05 03:17 33.52642 -111.83305 6140 ft 251 kts 91°
2026-05-05 03:17 33.52711 -111.81208 5777 ft 252 kts 91°
2026-05-05 03:17 33.52671 -111.79144 5358 ft 244 kts 107°
2026-05-05 03:18 33.51808 -111.77497 4943 ft 233 kts 144°
2026-05-05 03:18 33.50321 -111.76881 4547 ft 227 kts 178°
2026-05-05 03:18 33.48758 -111.76749 4258 ft 221 kts 178°
2026-05-05 03:18 33.47324 -111.77211 4131 ft 217 kts 219°
2026-05-05 03:19 33.45488 -111.80196 4056 ft 218 kts 237°
2026-05-05 03:19 33.44729 -111.81689 4025 ft 201 kts 239°
2026-05-05 03:19 33.44145 -111.83170 3773 ft 195 kts 258°
2026-05-05 03:20 33.44110 -111.84756 3484 ft 186 kts 266°
2026-05-05 03:20 33.44038 -111.86284 3225 ft 182 kts 268°
2026-05-05 03:20 33.44021 -111.87701 2981 ft 156 kts 269°
2026-05-05 03:20 33.44027 -111.88875 2769 ft 133 kts 269°
2026-05-05 03:21 33.44028 -111.89971 2605 ft 134 kts 270°
2026-05-05 03:21 33.44040 -111.91114 2443 ft 137 kts 271°
2026-05-05 03:21 33.44053 -111.92226 2246 ft 132 kts 271°
2026-05-05 03:21 33.44068 -111.93305 2085 ft 128 kts 270°
2026-05-05 03:22 33.44080 -111.94382 1957 ft 135 kts 269°
2026-05-05 03:22 33.44066 -111.95516 1796 ft 138 kts 269°
2026-05-05 03:22 33.44071 -111.96666 1607 ft 136 kts 270°
2026-05-05 03:22 33.44070 -111.97775 1411 ft 134 kts 271°
2026-05-05 03:23 33.44077 -111.98897 1252 ft 134 kts 270°
2026-05-05 03:23 33.44085 -111.99970 1132 ft 114 kts 269°
2026-05-05 03:23 33.44084 -112.00691 1127 ft 55 kts 270°
2026-05-05 03:23 33.44082 -112.00982 1128 ft 27 kts 265°
2026-05-05 03:24 33.44020 -112.01085 1125 ft 15 kts 185°
2026-05-05 03:24 33.43974 -112.00979 1121 ft 19 kts 89°
2026-05-05 03:24 33.43974 -112.00800 1123 ft 24 kts 91°
2026-05-05 03:24 33.43974 -112.00583 1122 ft 28 kts 90°
2026-05-05 03:25 33.43973 -112.00329 1121 ft 31 kts 90°
2026-05-05 03:25 33.43973 -112.00068 1123 ft 32 kts 90°
2026-05-05 03:25 33.43972 -111.99881 1126 ft 15 kts 95°
2026-05-05 03:25 33.43887 -111.99827 1120 ft 17 kts 178°
2026-05-05 03:26 33.43764 -111.99826 1123 ft 18 kts 180°
2026-05-05 03:26 33.43659 -111.99833 1122 ft 11 kts 211°
2026-05-05 03:26 33.43649 -111.99849 1117 ft 0 kts 276°
2026-05-05 03:26 33.43652 -111.99865 1122 ft 3 kts 277°
2026-05-05 03:27 33.43652 -111.99874 1116 ft 0 kts 271°